Time,TemperatureF,DewpointF,PressureIn,WindDirection,WindDirectionDegrees,WindSpeedMPH,WindSpeedGustMPH,Humidity,HourlyPrecipIn,Conditions,Clouds,dailyrainin,SoftwareType,DateUTC
2014-01-03 00:02:00,44.3,40.7,29.57,SSE,158,4.5,9.2,87,0.00,,,0.00,WUHU216HW,2014-01-02 23:02:00,
2014-01-03 00:07:00,44.3,40.7,29.57,SE,135,5.8,6.9,87,0.00,,,0.00,WUHU216HW,2014-01-02 23:07:00,
2014-01-03 00:12:00,44.3,40.7,29.57,SE,135,7.2,7.2,87,0.00,,,0.00,WUHU216HW,2014-01-02 23:12:00,
2014-01-03 00:17:00,44.3,40.7,29.56,SSE,158,4.7,7.2,87,0.00,,,0.00,WUHU216HW,2014-01-02 23:17:00,
2014-01-03 00:22:00,44.1,40.5,29.56,South,180,6.0,7.2,87,0.00,,,0.00,WUHU216HW,2014-01-02 23:22:00,
2014-01-03 00:27:00,44.1,40.5,29.56,South,180,5.1,6.0,87,0.00,,,0.00,WUHU216HW,2014-01-02 23:27:00,
2014-01-03 00:32:00,44.1,40.5,29.56,South,180,4.3,6.0,87,0.00,,,0.00,WUHU216HW,2014-01-02 23:32:00,
2014-01-03 00:37:00,44.1,40.8,29.56,ESE,113,2.5,5.8,88,0.00,,,0.00,WUHU216HW,2014-01-02 23:37:00,
2014-01-03 00:42:00,44.1,40.8,29.56,SE,135,5.1,6.0,88,0.00,,,0.00,WUHU216HW,2014-01-02 23:42:00,
2014-01-03 00:47:00,44.1,40.8,29.56,SE,135,4.3,6.0,88,0.00,,,0.00,WUHU216HW,2014-01-02 23:47:00,
2014-01-03 00:52:00,43.9,40.6,29.55,SE,135,4.7,5.1,88,0.00,,,0.00,WUHU216HW,2014-01-02 23:52:00,
2014-01-03 00:57:00,43.9,40.6,29.55,ENE,68,2.0,5.1,88,0.00,,,0.00,WUHU216HW,2014-01-02 23:57:00,
2014-01-03 01:02:00,43.9,40.6,29.55,SE,135,4.3,5.1,88,0.00,,,0.00,WUHU216HW,2014-01-03 00:02:00,
2014-01-03 01:07:00,43.9,40.6,29.55,South,180,4.3,5.4,88,0.00,,,0.00,WUHU216HW,2014-01-03 00:07:00,
2014-01-03 01:12:00,43.7,40.4,29.54,SSE,158,3.8,5.4,88,0.00,,,0.00,WUHU216HW,2014-01-03 00:12:00,
2014-01-03 01:17:00,43.7,40.4,29.54,SE,135,4.5,4.9,88,0.00,,,0.00,WUHU216HW,2014-01-03 00:17:00,
2014-01-03 01:22:00,43.6,40.2,29.54,SSE,158,4.0,6.3,88,0.00,,,0.00,WUHU216HW,2014-01-03 00:22:00,
2014-01-03 01:27:00,43.6,40.2,29.54,SSE,158,3.6,6.3,88,0.00,,,0.00,WUHU216HW,2014-01-03 00:27:00,
2014-01-03 01:32:00,43.6,40.2,29.53,SE,135,5.4,6.0,88,0.00,,,0.00,WUHU216HW,2014-01-03 00:32:00,
2014-01-03 01:37:00,43.6,40.6,29.54,SE,135,2.2,6.5,89,0.00,,,0.00,WUHU216HW,2014-01-03 00:37:00,
2014-01-03 01:42:00,43.6,40.6,29.53,SSE,158,2.9,6.5,89,0.00,,,0.00,WUHU216HW,2014-01-03 00:42:00,
2014-01-03 01:47:00,43.6,40.2,29.54,SSE,158,4.3,8.1,88,0.00,,,0.00,WUHU216HW,2014-01-03 00:47:00,
2014-01-03 01:52:00,43.7,40.4,29.53,South,180,4.7,8.1,88,0.00,,,0.00,WUHU216HW,2014-01-03 00:52:00,
2014-01-03 01:57:00,43.7,40.4,29.53,SSE,158,4.7,7.6,88,0.00,,,0.00,WUHU216HW,2014-01-03 00:57:00,
2014-01-03 02:02:00,43.9,41.0,29.53,SSE,158,9.2,9.2,89,0.00,,,0.00,WUHU216HW,2014-01-03 01:02:00,
2014-01-03 02:07:00,44.3,41.3,29.53,South,180,10.1,10.5,89,0.00,,,0.00,WUHU216HW,2014-01-03 01:07:00,
2014-01-03 02:12:00,44.6,41.9,29.53,ESE,113,8.3,12.1,90,0.00,,,0.00,WUHU216HW,2014-01-03 01:12:00,
2014-01-03 02:17:00,45.0,42.3,29.53,SSE,158,8.9,12.1,90,0.00,,,0.00,WUHU216HW,2014-01-03 01:17:00,
2014-01-03 02:22:00,45.2,42.5,29.53,South,180,10.7,16.6,90,0.00,,,0.00,WUHU216HW,2014-01-03 01:22:00,
2014-01-03 02:27:00,45.4,42.4,29.53,South,180,13.4,16.6,89,0.00,,,0.00,WUHU216HW,2014-01-03 01:27:00,
2014-01-03 02:32:00,45.5,42.6,29.53,South,180,11.4,16.3,89,0.00,,,0.00,WUHU216HW,2014-01-03 01:32:00,
2014-01-03 02:37:00,45.5,42.6,29.53,ESE,113,10.7,16.3,89,0.00,,,0.00,WUHU216HW,2014-01-03 01:37:00,
2014-01-03 02:42:00,45.7,42.8,29.53,SSW,203,10.5,16.3,89,0.00,,,0.00,WUHU216HW,2014-01-03 01:42:00,
2014-01-03 02:47:00,45.7,42.4,29.53,ESE,113,6.9,13.9,88,0.00,,,0.00,WUHU216HW,2014-01-03 01:47:00,
2014-01-03 02:52:00,45.7,42.4,29.53,SSE,158,7.8,12.1,88,0.00,,,0.00,WUHU216HW,2014-01-03 01:52:00,
2014-01-03 02:57:00,45.7,42.4,29.53,South,180,10.5,12.1,88,0.00,,,0.00,WUHU216HW,2014-01-03 01:57:00,
2014-01-03 03:02:00,45.7,42.4,29.53,South,180,12.8,12.8,88,0.00,,,0.00,WUHU216HW,2014-01-03 02:02:00,
2014-01-03 03:07:00,45.7,42.4,29.53,SSE,158,9.6,12.8,88,0.00,,,0.00,WUHU216HW,2014-01-03 02:07:00,
2014-01-03 03:12:00,45.5,42.2,29.53,SSE,158,7.6,12.8,88,0.00,,,0.00,WUHU216HW,2014-01-03 02:12:00,
2014-01-03 03:17:00,45.5,42.6,29.53,SSE,158,10.3,11.2,89,0.00,,,0.00,WUHU216HW,2014-01-03 02:17:00,
2014-01-03 03:22:00,45.7,42.8,29.53,South,180,15.4,15.4,89,0.00,,,0.00,WUHU216HW,2014-01-03 02:22:00,
2014-01-03 03:27:00,45.7,42.8,29.52,SSW,203,17.0,17.0,89,0.00,,,0.00,WUHU216HW,2014-01-03 02:27:00,
2014-01-03 03:32:00,45.9,42.9,29.52,SSE,158,12.8,18.1,89,0.00,,,0.00,WUHU216HW,2014-01-03 02:32:00,
2014-01-03 03:37:00,46.1,43.1,29.52,SE,135,17.2,18.1,89,0.00,,,0.00,WUHU216HW,2014-01-03 02:37:00,
2014-01-03 03:42:00,46.1,42.8,29.52,SSE,158,16.8,17.2,88,0.00,,,0.00,WUHU216HW,2014-01-03 02:42:00,
2014-01-03 03:47:00,46.3,42.9,29.52,South,180,11.0,18.8,88,0.00,,,0.00,WUHU216HW,2014-01-03 02:47:00,
2014-01-03 03:52:00,46.3,42.9,29.51,South,180,9.8,18.8,88,0.00,,,0.00,WUHU216HW,2014-01-03 02:52:00,
2014-01-03 03:57:00,46.3,42.9,29.51,SE,135,9.4,15.0,88,0.00,,,0.00,WUHU216HW,2014-01-03 02:57:00,
2014-01-03 04:02:00,46.4,43.1,29.51,South,180,13.6,15.0,88,0.00,,,0.00,WUHU216HW,2014-01-03 03:02:00,
2014-01-03 04:07:00,46.4,43.1,29.50,South,180,10.1,15.0,88,0.00,,,0.00,WUHU216HW,2014-01-03 03:07:00,
2014-01-03 04:12:00,46.6,43.3,29.50,SSW,203,12.5,16.1,88,0.00,,,0.00,WUHU216HW,2014-01-03 03:12:00,
2014-01-03 04:17:00,46.8,43.2,29.50,South,180,10.3,16.1,87,0.00,,,0.00,WUHU216HW,2014-01-03 03:17:00,
2014-01-03 04:22:00,47.2,43.6,29.49,SSE,158,13.2,15.2,87,0.00,,,0.00,WUHU216HW,2014-01-03 03:22:00,
2014-01-03 04:27:00,47.2,43.6,29.49,SSE,158,9.8,13.2,87,0.00,,,0.00,WUHU216HW,2014-01-03 03:27:00,
2014-01-03 04:33:00,47.2,43.6,29.48,SE,135,7.6,13.2,87,0.00,,,0.00,WUHU216HW,2014-01-03 03:33:00,
2014-01-03 04:38:00,47.2,43.6,29.49,SSE,158,6.9,11.9,87,0.00,,,0.00,WUHU216HW,2014-01-03 03:38:00,
2014-01-03 04:43:00,47.2,43.6,29.48,ESE,113,4.0,8.5,87,0.00,,,0.00,WUHU216HW,2014-01-03 03:43:00,
2014-01-03 04:48:00,47.0,43.7,29.48,South,180,7.4,8.5,88,0.00,,,0.00,WUHU216HW,2014-01-03 03:48:00,
2014-01-03 04:53:00,46.8,43.5,29.48,South,180,5.4,9.6,88,0.00,,,0.00,WUHU216HW,2014-01-03 03:53:00,
2014-01-03 04:58:00,46.8,43.5,29.47,SSW,203,6.5,9.6,88,0.01,,,0.01,WUHU216HW,2014-01-03 03:58:00,
2014-01-03 05:03:00,47.0,44.0,29.47,ESE,113,11.6,12.8,89,0.01,,,0.01,WUHU216HW,2014-01-03 04:03:00,
2014-01-03 05:08:00,47.2,44.2,29.47,SSE,158,9.8,15.0,89,0.01,,,0.01,WUHU216HW,2014-01-03 04:08:00,
2014-01-03 05:13:00,47.2,44.2,29.47,SE,135,9.8,15.0,89,0.01,,,0.01,WUHU216HW,2014-01-03 04:13:00,
2014-01-03 05:18:00,47.2,44.5,29.47,South,180,8.1,11.2,90,0.01,,,0.01,WUHU216HW,2014-01-03 04:18:00,
2014-01-03 05:23:00,47.3,44.6,29.47,South,180,6.7,14.5,90,0.02,,,0.03,WUHU216HW,2014-01-03 04:23:00,
2014-01-03 05:28:00,47.3,44.6,29.46,SE,135,9.2,14.5,90,0.03,,,0.03,WUHU216HW,2014-01-03 04:28:00,
2014-01-03 05:33:00,47.3,44.9,29.46,South,180,7.2,11.2,91,0.03,,,0.03,WUHU216HW,2014-01-03 04:33:00,
2014-01-03 05:38:00,47.3,44.9,29.46,SSE,158,8.5,14.8,91,0.03,,,0.03,WUHU216HW,2014-01-03 04:38:00,
2014-01-03 05:43:00,47.3,44.9,29.46,SE,135,5.4,14.8,91,0.03,,,0.03,WUHU216HW,2014-01-03 04:43:00,
2014-01-03 05:48:00,47.3,44.9,29.45,ESE,113,8.9,13.2,91,0.04,,,0.05,WUHU216HW,2014-01-03 04:48:00,
2014-01-03 05:53:00,47.3,44.9,29.45,SE,135,8.9,11.0,91,0.03,,,0.05,WUHU216HW,2014-01-03 04:53:00,
2014-01-03 05:58:00,47.3,44.9,29.45,SSE,158,9.6,11.0,91,0.03,,,0.05,WUHU216HW,2014-01-03 04:58:00,
2014-01-03 06:01:00,47.3,44.9,29.45,SE,135,6.3,11.9,91,0.04,,,0.05,WUHU216HW,2014-01-03 05:01:00,
2014-01-03 06:02:00,47.3,44.9,29.45,SSE,158,5.4,12.8,91,0.04,,,0.05,WUHU216HW,2014-01-03 05:02:00,
2014-01-03 06:07:00,47.3,44.9,29.45,South,180,13.2,13.2,91,0.04,,,0.05,WUHU216HW,2014-01-03 05:07:00,
2014-01-03 06:12:00,47.3,44.9,29.45,SSE,158,8.7,13.2,91,0.05,,,0.06,WUHU216HW,2014-01-03 05:12:00,
2014-01-03 06:17:00,47.5,45.1,29.45,SSE,158,11.6,13.2,91,0.04,,,0.06,WUHU216HW,2014-01-03 05:17:00,
2014-01-03 06:22:00,47.5,45.1,29.45,SSE,158,11.0,14.1,91,0.04,,,0.06,WUHU216HW,2014-01-03 05:22:00,
2014-01-03 06:27:00,47.5,45.4,29.44,SE,135,11.2,19.5,92,0.03,,,0.06,WUHU216HW,2014-01-03 05:27:00,
2014-01-03 06:32:00,47.5,45.4,29.44,SSE,158,12.8,19.5,92,0.03,,,0.06,WUHU216HW,2014-01-03 05:32:00,
2014-01-03 06:37:00,47.5,45.4,29.44,South,180,16.1,16.1,92,0.03,,,0.06,WUHU216HW,2014-01-03 05:37:00,
2014-01-03 06:42:00,47.5,45.4,29.44,South,180,15.2,17.7,92,0.03,,,0.06,WUHU216HW,2014-01-03 05:42:00,
2014-01-03 06:47:00,47.5,45.4,29.44,SSE,158,13.2,17.7,92,0.02,,,0.06,WUHU216HW,2014-01-03 05:47:00,
2014-01-03 06:52:00,47.7,45.5,29.44,South,180,16.6,17.9,92,0.02,,,0.06,WUHU216HW,2014-01-03 05:52:00,
2014-01-03 06:57:00,47.5,45.4,29.44,SSE,158,7.6,18.6,92,0.01,,,0.06,WUHU216HW,2014-01-03 05:57:00,
2014-01-03 07:03:00,47.7,45.5,29.44,SSE,158,12.8,18.6,92,0.01,,,0.06,WUHU216HW,2014-01-03 06:03:00,
2014-01-03 07:08:00,47.7,45.5,29.44,South,180,19.5,19.5,92,0.01,,,0.06,WUHU216HW,2014-01-03 06:08:00,
2014-01-03 07:13:00,47.7,45.5,29.43,South,180,16.1,19.5,92,0.00,,,0.06,WUHU216HW,2014-01-03 06:13:00,
2014-01-03 07:18:00,47.7,45.5,29.44,SSE,158,19.0,19.5,92,0.00,,,0.06,WUHU216HW,2014-01-03 06:18:00,
2014-01-03 07:23:00,47.7,45.5,29.43,SSE,158,14.5,19.0,92,0.00,,,0.06,WUHU216HW,2014-01-03 06:23:00,
2014-01-03 07:28:00,47.7,45.5,29.43,South,180,16.8,17.9,92,0.00,,,0.06,WUHU216HW,2014-01-03 06:28:00,
2014-01-03 07:33:00,47.7,45.5,29.44,South,180,15.0,18.3,92,0.00,,,0.06,WUHU216HW,2014-01-03 06:33:00,
2014-01-03 07:38:00,47.7,45.5,29.43,SSE,158,11.9,18.3,92,0.00,,,0.06,WUHU216HW,2014-01-03 06:38:00,
2014-01-03 07:43:00,47.7,45.5,29.44,South,180,17.0,18.3,92,0.00,,,0.06,WUHU216HW,2014-01-03 06:43:00,
2014-01-03 07:48:00,47.7,45.5,29.44,SSE,158,11.9,21.0,92,0.00,,,0.06,WUHU216HW,2014-01-03 06:48:00,
2014-01-03 07:53:00,47.7,45.5,29.44,SSW,203,14.3,21.0,92,0.00,,,0.06,WUHU216HW,2014-01-03 06:53:00,
2014-01-03 07:58:00,47.7,45.5,29.44,SSE,158,13.0,19.7,92,0.00,,,0.06,WUHU216HW,2014-01-03 06:58:00,
2014-01-03 08:03:00,47.7,45.5,29.44,SE,135,15.0,18.6,92,0.00,,,0.06,WUHU216HW,2014-01-03 07:03:00,
2014-01-03 08:08:00,47.9,45.7,29.44,South,180,16.3,17.4,92,0.00,,,0.06,WUHU216HW,2014-01-03 07:08:00,
2014-01-03 08:13:00,47.9,45.5,29.44,South,180,12.5,17.7,91,0.00,,,0.06,WUHU216HW,2014-01-03 07:13:00,
2014-01-03 08:18:00,47.9,45.5,29.44,South,180,14.1,17.7,91,0.00,,,0.06,WUHU216HW,2014-01-03 07:18:00,
2014-01-03 08:23:00,47.9,45.5,29.44,SSW,203,16.3,20.1,91,0.00,,,0.06,WUHU216HW,2014-01-03 07:23:00,
2014-01-03 08:28:00,47.9,45.5,29.44,South,180,14.8,20.1,91,0.00,,,0.06,WUHU216HW,2014-01-03 07:28:00,
2014-01-03 08:33:00,47.9,45.5,29.44,SSE,158,20.4,20.4,91,0.00,,,0.06,WUHU216HW,2014-01-03 07:33:00,
2014-01-03 08:38:00,47.9,45.5,29.44,SSE,158,14.8,20.4,91,0.00,,,0.06,WUHU216HW,2014-01-03 07:38:00,
2014-01-03 08:43:00,47.9,45.5,29.44,SSE,158,15.0,19.9,91,0.00,,,0.06,WUHU216HW,2014-01-03 07:43:00,
2014-01-03 08:48:00,47.9,45.5,29.45,South,180,16.8,20.1,91,0.00,,,0.06,WUHU216HW,2014-01-03 07:48:00,
2014-01-03 08:53:00,47.9,45.5,29.45,SSE,158,15.7,20.1,91,0.00,,,0.06,WUHU216HW,2014-01-03 07:53:00,
2014-01-03 08:58:00,47.9,45.2,29.45,South,180,15.0,18.8,90,0.00,,,0.06,WUHU216HW,2014-01-03 07:58:00,
2014-01-03 09:03:00,47.9,45.2,29.45,South,180,15.7,18.8,90,0.00,,,0.06,WUHU216HW,2014-01-03 08:03:00,
2014-01-03 09:08:00,47.7,45.0,29.45,South,180,14.1,18.8,90,0.00,,,0.06,WUHU216HW,2014-01-03 08:08:00,
2014-01-03 09:13:00,47.7,45.3,29.46,South,180,15.9,17.0,91,0.00,,,0.06,WUHU216HW,2014-01-03 08:13:00,
2014-01-03 09:18:00,47.7,45.3,29.46,SSE,158,13.6,17.0,91,0.00,,,0.06,WUHU216HW,2014-01-03 08:18:00,
2014-01-03 09:23:00,47.9,45.5,29.46,SSE,158,15.7,17.9,91,0.00,,,0.06,WUHU216HW,2014-01-03 08:23:00,
2014-01-03 09:28:00,47.9,45.5,29.46,South,180,13.6,17.9,91,0.00,,,0.06,WUHU216HW,2014-01-03 08:28:00,
2014-01-03 09:33:00,47.9,45.5,29.46,SSE,158,13.4,17.0,91,0.00,,,0.06,WUHU216HW,2014-01-03 08:33:00,
2014-01-03 09:38:00,47.9,45.5,29.46,South,180,13.4,17.0,91,0.00,,,0.06,WUHU216HW,2014-01-03 08:38:00,
2014-01-03 09:43:00,47.9,45.5,29.46,South,180,16.8,17.4,91,0.00,,,0.06,WUHU216HW,2014-01-03 08:43:00,
2014-01-03 09:48:00,48.1,45.4,29.46,South,180,14.3,17.4,90,0.00,,,0.06,WUHU216HW,2014-01-03 08:48:00,
2014-01-03 09:53:00,48.2,45.5,29.46,South,180,13.9,17.2,90,0.00,,,0.06,WUHU216HW,2014-01-03 08:53:00,
2014-01-03 09:58:00,48.2,45.5,29.46,South,180,14.5,18.8,90,0.00,,,0.06,WUHU216HW,2014-01-03 08:58:00,
2014-01-03 10:03:00,48.4,45.7,29.46,SSE,158,15.2,20.1,90,0.00,,,0.06,WUHU216HW,2014-01-03 09:03:00,
2014-01-03 10:08:00,48.4,45.7,29.46,SSE,158,11.2,20.1,90,0.00,,,0.06,WUHU216HW,2014-01-03 09:08:00,
2014-01-03 10:13:00,48.6,45.9,29.47,SE,135,13.9,18.6,90,0.00,,,0.06,WUHU216HW,2014-01-03 09:13:00,
2014-01-03 10:18:00,48.6,45.9,29.47,SSE,158,11.9,17.9,90,0.00,,,0.06,WUHU216HW,2014-01-03 09:18:00,
2014-01-03 10:23:00,48.8,46.0,29.47,South,180,15.7,17.9,90,0.00,,,0.06,WUHU216HW,2014-01-03 09:23:00,
2014-01-03 10:28:00,48.8,46.0,29.47,South,180,15.7,17.0,90,0.00,,,0.06,WUHU216HW,2014-01-03 09:28:00,
2014-01-03 10:33:00,49.0,46.2,29.47,SSE,158,15.2,17.4,90,0.00,,,0.06,WUHU216HW,2014-01-03 09:33:00,
2014-01-03 10:38:00,49.1,46.1,29.47,South,180,16.6,18.1,89,0.00,,,0.06,WUHU216HW,2014-01-03 09:38:00,
2014-01-03 10:43:00,49.3,46.2,29.47,South,180,13.4,20.8,89,0.00,,,0.06,WUHU216HW,2014-01-03 09:43:00,
2014-01-03 10:48:00,49.3,46.2,29.47,South,180,17.9,20.8,89,0.00,,,0.06,WUHU216HW,2014-01-03 09:48:00,
2014-01-03 10:53:00,49.5,46.4,29.47,SSE,158,13.9,18.6,89,0.00,,,0.06,WUHU216HW,2014-01-03 09:53:00,
2014-01-03 10:58:00,49.7,46.5,29.47,South,180,12.8,19.5,89,0.00,,,0.06,WUHU216HW,2014-01-03 09:58:00,
2014-01-03 11:03:00,49.9,46.4,29.47,South,180,19.2,19.5,88,0.00,,,0.06,WUHU216HW,2014-01-03 10:03:00,
2014-01-03 11:08:00,49.9,46.4,29.47,South,180,14.1,19.2,88,0.00,,,0.06,WUHU216HW,2014-01-03 10:08:00,
2014-01-03 11:13:00,50.0,46.5,29.47,SSW,203,17.2,19.2,88,0.00,,,0.06,WUHU216HW,2014-01-03 10:13:00,
2014-01-03 11:18:00,50.0,46.5,29.47,South,180,12.3,18.3,88,0.00,,,0.06,WUHU216HW,2014-01-03 10:18:00,
2014-01-03 11:23:00,50.0,46.5,29.47,South,180,15.0,17.2,88,0.00,,,0.06,WUHU216HW,2014-01-03 10:23:00,
2014-01-03 11:28:00,50.2,46.7,29.47,South,180,13.2,18.6,88,0.00,,,0.06,WUHU216HW,2014-01-03 10:28:00,
2014-01-03 11:33:00,50.4,46.6,29.47,South,180,15.2,20.8,87,0.00,,,0.06,WUHU216HW,2014-01-03 10:33:00,
2014-01-03 11:38:00,50.6,46.8,29.47,South,180,15.0,20.8,87,0.00,,,0.06,WUHU216HW,2014-01-03 10:38:00,
2014-01-03 11:43:00,50.8,47.0,29.46,SSW,203,14.1,18.6,87,0.00,,,0.06,WUHU216HW,2014-01-03 10:43:00,
2014-01-03 11:48:00,50.8,47.0,29.46,South,180,13.9,18.6,87,0.00,,,0.06,WUHU216HW,2014-01-03 10:48:00,
2014-01-03 11:53:00,51.1,47.0,29.47,South,180,17.0,18.1,86,0.00,,,0.06,WUHU216HW,2014-01-03 10:53:00,
2014-01-03 11:58:00,51.3,47.2,29.47,SSW,203,17.0,18.1,86,0.00,,,0.06,WUHU216HW,2014-01-03 10:58:00,
2014-01-03 12:03:00,51.5,47.1,29.47,SSE,158,17.2,21.9,85,0.00,,,0.06,WUHU216HW,2014-01-03 11:03:00,
2014-01-03 12:08:00,51.5,46.8,29.47,South,180,20.1,21.9,84,0.00,,,0.06,WUHU216HW,2014-01-03 11:08:00,
2014-01-03 12:13:00,51.7,47.0,29.46,South,180,15.7,20.1,84,0.00,,,0.06,WUHU216HW,2014-01-03 11:13:00,
2014-01-03 12:18:00,51.5,46.4,29.46,South,180,17.9,20.8,83,0.00,,,0.06,WUHU216HW,2014-01-03 11:18:00,
2014-01-03 12:23:00,51.7,46.4,29.46,SSW,203,17.0,22.6,82,0.00,,,0.06,WUHU216HW,2014-01-03 11:23:00,
2014-01-03 12:28:00,51.8,46.5,29.46,SSW,203,17.9,22.6,82,0.00,,,0.06,WUHU216HW,2014-01-03 11:28:00,
2014-01-03 12:33:00,52.0,47.0,29.47,South,180,17.2,23.5,83,0.00,,,0.06,WUHU216HW,2014-01-03 11:33:00,
2014-01-03 12:38:00,51.8,47.2,29.46,SSW,203,14.8,23.5,84,0.00,,,0.06,WUHU216HW,2014-01-03 11:38:00,
2014-01-03 12:43:00,51.7,47.0,29.47,South,180,12.8,21.9,84,0.00,,,0.06,WUHU216HW,2014-01-03 11:43:00,
2014-01-03 12:48:00,51.7,47.0,29.47,SSW,203,15.7,19.2,84,0.00,,,0.06,WUHU216HW,2014-01-03 11:48:00,
2014-01-03 12:53:00,51.7,47.0,29.47,SSW,203,11.9,19.5,84,0.00,,,0.06,WUHU216HW,2014-01-03 11:53:00,
2014-01-03 12:58:00,51.7,47.0,29.47,South,180,15.4,19.5,84,0.00,,,0.06,WUHU216HW,2014-01-03 11:58:00,
2014-01-03 13:03:00,51.5,47.1,29.47,South,180,9.2,18.8,85,0.01,,,0.08,WUHU216HW,2014-01-03 12:03:00,
2014-01-03 13:08:00,51.3,46.6,29.47,South,180,13.2,15.7,84,0.01,,,0.08,WUHU216HW,2014-01-03 12:08:00,
2014-01-03 13:13:00,51.5,46.8,29.47,SSW,203,15.7,20.8,84,0.01,,,0.08,WUHU216HW,2014-01-03 12:13:00,
2014-01-03 13:18:00,51.3,46.9,29.47,SW,225,8.1,20.8,85,0.01,,,0.08,WUHU216HW,2014-01-03 12:18:00,
2014-01-03 13:23:00,51.1,46.7,29.47,SW,225,13.4,15.7,85,0.01,,,0.08,WUHU216HW,2014-01-03 12:23:00,
2014-01-03 13:28:00,51.1,46.5,29.47,WSW,248,12.5,15.4,84,0.01,,,0.08,WUHU216HW,2014-01-03 12:28:00,
2014-01-03 13:33:00,51.1,46.5,29.47,SW,225,9.2,15.4,84,0.01,,,0.08,WUHU216HW,2014-01-03 12:33:00,
2014-01-03 13:38:00,51.1,46.5,29.47,SSW,203,12.1,14.3,84,0.01,,,0.08,WUHU216HW,2014-01-03 12:38:00,
2014-01-03 13:43:00,51.3,46.3,29.47,SW,225,7.8,14.3,83,0.01,,,0.08,WUHU216HW,2014-01-03 12:43:00,
2014-01-03 13:48:00,51.1,46.1,29.48,SSW,203,7.6,13.4,83,0.01,,,0.08,WUHU216HW,2014-01-03 12:48:00,
2014-01-03 13:53:00,51.3,46.3,29.47,SW,225,11.6,12.3,83,0.01,,,0.08,WUHU216HW,2014-01-03 12:53:00,
2014-01-03 13:58:00,51.5,45.8,29.47,South,180,16.3,17.2,81,0.01,,,0.08,WUHU216HW,2014-01-03 12:58:00,
2014-01-03 14:03:00,51.8,46.2,29.47,South,180,15.2,17.2,81,0.00,,,0.08,WUHU216HW,2014-01-03 13:03:00,
2014-01-03 14:08:00,52.2,45.9,29.47,South,180,13.6,21.0,79,0.00,,,0.08,WUHU216HW,2014-01-03 13:08:00,
2014-01-03 14:13:00,52.4,45.7,29.47,South,180,15.4,21.0,78,0.00,,,0.08,WUHU216HW,2014-01-03 13:13:00,
2014-01-03 14:18:00,52.4,45.7,29.47,SSW,203,13.9,16.8,78,0.00,,,0.08,WUHU216HW,2014-01-03 13:18:00,
2014-01-03 14:23:00,52.6,46.3,29.47,South,180,9.8,15.7,79,0.00,,,0.08,WUHU216HW,2014-01-03 13:23:00,
2014-01-03 14:28:00,52.6,46.6,29.48,South,180,10.5,15.2,80,0.00,,,0.08,WUHU216HW,2014-01-03 13:28:00,
2014-01-03 14:33:00,52.4,46.4,29.48,South,180,10.3,14.8,80,0.00,,,0.08,WUHU216HW,2014-01-03 13:33:00,
2014-01-03 14:38:00,52.6,46.9,29.48,South,180,9.4,13.4,81,0.00,,,0.08,WUHU216HW,2014-01-03 13:38:00,
2014-01-03 14:43:00,52.6,46.6,29.47,South,180,11.2,13.4,80,0.00,,,0.08,WUHU216HW,2014-01-03 13:43:00,
2014-01-03 14:48:00,52.4,46.4,29.48,South,180,10.5,13.4,80,0.00,,,0.08,WUHU216HW,2014-01-03 13:48:00,
2014-01-03 14:53:00,52.2,46.3,29.48,SSW,203,8.7,11.2,80,0.00,,,0.08,WUHU216HW,2014-01-03 13:53:00,
2014-01-03 14:58:00,52.2,45.9,29.48,South,180,12.8,12.8,79,0.00,,,0.08,WUHU216HW,2014-01-03 13:58:00,
2014-01-03 15:03:00,51.8,45.5,29.47,South,180,10.5,13.0,79,0.00,,,0.08,WUHU216HW,2014-01-03 14:03:00,
2014-01-03 15:08:00,52.0,46.1,29.47,South,180,11.4,14.1,80,0.00,,,0.08,WUHU216HW,2014-01-03 14:08:00,
2014-01-03 15:13:00,52.2,46.3,29.47,SSW,203,11.0,14.1,80,0.00,,,0.08,WUHU216HW,2014-01-03 14:13:00,
2014-01-03 15:18:00,52.2,45.9,29.47,South,180,10.3,17.9,79,0.00,,,0.08,WUHU216HW,2014-01-03 14:18:00,
2014-01-03 15:23:00,52.2,45.9,29.47,SSW,203,9.2,17.9,79,0.00,,,0.08,WUHU216HW,2014-01-03 14:23:00,
2014-01-03 15:28:00,51.8,45.2,29.47,SSW,203,11.0,14.3,78,0.00,,,0.08,WUHU216HW,2014-01-03 14:28:00,
2014-01-03 15:33:00,51.7,45.7,29.47,South,180,8.1,12.1,80,0.00,,,0.08,WUHU216HW,2014-01-03 14:33:00,
2014-01-03 15:38:00,51.5,45.5,29.47,SSW,203,15.7,16.3,80,0.00,,,0.08,WUHU216HW,2014-01-03 14:38:00,
2014-01-03 15:43:00,51.1,45.5,29.47,South,180,12.8,17.9,81,0.00,,,0.08,WUHU216HW,2014-01-03 14:43:00,
2014-01-03 15:48:00,50.4,44.5,29.47,South,180,14.5,22.4,80,0.01,,,0.08,WUHU216HW,2014-01-03 14:48:00,
2014-01-03 15:53:00,50.0,44.4,29.47,SSW,203,12.1,22.4,81,0.01,,,0.08,WUHU216HW,2014-01-03 14:53:00,
2014-01-03 15:58:00,49.7,44.4,29.46,South,180,7.6,12.8,82,0.01,,,0.08,WUHU216HW,2014-01-03 14:58:00,
2014-01-03 16:03:00,49.7,44.6,29.46,South,180,6.5,9.2,83,0.01,,,0.08,WUHU216HW,2014-01-03 15:03:00,
2014-01-03 16:08:00,49.5,44.8,29.48,South,180,8.1,9.8,84,0.01,,,0.08,WUHU216HW,2014-01-03 15:08:00,
2014-01-03 16:13:00,49.3,44.0,29.47,SW,225,12.1,15.7,82,0.04,,,0.12,WUHU216HW,2014-01-03 15:13:00,
2014-01-03 16:18:00,49.1,43.8,29.47,SSW,203,14.3,15.7,82,0.05,,,0.12,WUHU216HW,2014-01-03 15:18:00,
2014-01-03 16:23:00,48.8,43.2,29.46,SSW,203,12.1,19.2,81,0.07,,,0.15,WUHU216HW,2014-01-03 15:23:00,
2014-01-03 16:28:00,48.4,43.1,29.46,SW,225,8.9,19.2,82,0.07,,,0.15,WUHU216HW,2014-01-03 15:28:00,
2014-01-03 16:33:00,48.6,43.3,29.47,SW,225,13.4,14.5,82,0.09,,,0.17,WUHU216HW,2014-01-03 15:33:00,
2014-01-03 16:38:00,48.4,43.7,29.48,WSW,248,19.9,19.9,84,0.13,,,0.21,WUHU216HW,2014-01-03 15:38:00,
2014-01-03 16:43:00,47.3,42.1,29.49,WSW,248,23.9,34.9,82,0.14,,,0.22,WUHU216HW,2014-01-03 15:43:00,
2014-01-03 16:48:00,45.9,42.3,29.50,SW,225,21.5,34.9,87,0.15,,,0.24,WUHU216HW,2014-01-03 15:48:00,
2014-01-03 16:53:00,45.5,42.2,29.49,South,180,16.3,24.2,88,0.16,,,0.25,WUHU216HW,2014-01-03 15:53:00,
2014-01-03 16:58:00,45.5,42.2,29.49,SSW,203,15.0,25.9,88,0.17,,,0.26,WUHU216HW,2014-01-03 15:58:00,
2014-01-03 17:03:00,45.5,42.2,29.48,SSW,203,13.4,25.9,88,0.18,,,0.27,WUHU216HW,2014-01-03 16:03:00,
2014-01-03 17:08:00,45.5,42.0,29.47,SSW,203,18.8,18.8,87,0.17,,,0.27,WUHU216HW,2014-01-03 16:08:00,
2014-01-03 17:13:00,46.1,41.0,29.46,SSW,203,17.9,23.7,82,0.15,,,0.27,WUHU216HW,2014-01-03 16:13:00,
2014-01-03 17:18:00,46.4,41.3,29.48,SW,225,12.8,23.7,82,0.13,,,0.27,WUHU216HW,2014-01-03 16:18:00,
2014-01-03 17:23:00,46.4,41.3,29.47,SW,225,10.7,17.9,82,0.12,,,0.27,WUHU216HW,2014-01-03 16:23:00,
2014-01-03 17:28:00,46.4,41.0,29.47,SW,225,9.6,13.4,81,0.11,,,0.27,WUHU216HW,2014-01-03 16:28:00,
2014-01-03 17:33:00,46.4,41.0,29.48,South,180,11.0,13.2,81,0.08,,,0.27,WUHU216HW,2014-01-03 16:33:00,
2014-01-03 17:38:00,46.4,40.7,29.49,SSW,203,8.5,14.3,80,0.06,,,0.27,WUHU216HW,2014-01-03 16:38:00,
2014-01-03 17:43:00,46.4,40.7,29.48,SSW,203,9.6,15.0,80,0.05,,,0.27,WUHU216HW,2014-01-03 16:43:00,
2014-01-03 17:48:00,46.4,41.0,29.49,SSW,203,8.9,15.0,81,0.03,,,0.27,WUHU216HW,2014-01-03 16:48:00,
2014-01-03 17:53:00,46.4,41.3,29.49,SSW,203,9.4,12.5,82,0.02,,,0.27,WUHU216HW,2014-01-03 16:53:00,
2014-01-03 17:58:00,46.4,41.3,29.49,SW,225,9.8,14.8,82,0.00,,,0.27,WUHU216HW,2014-01-03 16:58:00,
2014-01-03 18:03:00,46.4,41.0,29.49,SW,225,11.4,14.8,81,0.00,,,0.27,WUHU216HW,2014-01-03 17:03:00,
2014-01-03 18:08:00,46.4,40.7,29.50,SSW,203,11.0,14.8,80,0.00,,,0.27,WUHU216HW,2014-01-03 17:08:00,
2014-01-03 18:13:00,46.4,40.3,29.50,SSW,203,10.3,11.4,79,0.00,,,0.27,WUHU216HW,2014-01-03 17:13:00,
2014-01-03 18:18:00,46.4,40.0,29.50,SW,225,11.4,12.1,78,0.00,,,0.27,WUHU216HW,2014-01-03 17:18:00,
2014-01-03 18:23:00,46.3,39.8,29.50,SSW,203,10.1,14.8,78,0.00,,,0.27,WUHU216HW,2014-01-03 17:23:00,
2014-01-03 18:28:00,46.1,39.6,29.50,South,180,9.2,14.8,78,0.00,,,0.27,WUHU216HW,2014-01-03 17:28:00,
2014-01-03 18:33:00,45.9,39.8,29.51,South,180,10.7,14.3,79,0.00,,,0.27,WUHU216HW,2014-01-03 17:33:00,
2014-01-03 18:38:00,45.9,39.8,29.51,SSW,203,15.2,15.2,79,0.00,,,0.27,WUHU216HW,2014-01-03 17:38:00,
2014-01-03 18:43:00,45.7,39.2,29.50,South,180,13.4,15.2,78,0.00,,,0.27,WUHU216HW,2014-01-03 17:43:00,
2014-01-03 18:48:00,45.7,39.6,29.50,SSW,203,12.5,15.2,79,0.00,,,0.27,WUHU216HW,2014-01-03 17:48:00,
2014-01-03 18:53:00,45.7,39.6,29.50,SSE,158,16.3,17.9,79,0.00,,,0.27,WUHU216HW,2014-01-03 17:53:00,
2014-01-03 18:58:00,45.7,40.0,29.50,South,180,17.0,17.9,80,0.00,,,0.27,WUHU216HW,2014-01-03 17:58:00,
2014-01-03 19:03:00,45.7,40.0,29.50,South,180,14.3,17.7,80,0.00,,,0.27,WUHU216HW,2014-01-03 18:03:00,
2014-01-03 19:08:00,45.7,39.6,29.50,SW,225,13.4,17.7,79,0.00,,,0.27,WUHU216HW,2014-01-03 18:08:00,
2014-01-03 19:13:00,45.5,39.8,29.51,SSW,203,11.4,17.4,80,0.00,,,0.27,WUHU216HW,2014-01-03 18:13:00,
2014-01-03 19:18:00,45.5,40.1,29.52,SSW,203,13.0,15.9,81,0.00,,,0.27,WUHU216HW,2014-01-03 18:18:00,
2014-01-03 19:23:00,45.7,40.6,29.55,SW,225,19.0,20.4,82,0.00,,,0.27,WUHU216HW,2014-01-03 18:23:00,
2014-01-03 19:28:00,44.6,39.5,29.54,SW,225,15.2,23.7,82,0.00,,,0.27,WUHU216HW,2014-01-03 18:28:00,
2014-01-03 19:33:00,44.3,39.8,29.54,SSW,203,21.5,23.7,84,0.00,,,0.27,WUHU216HW,2014-01-03 18:33:00,
2014-01-03 19:38:00,43.9,39.7,29.54,WSW,248,14.1,24.4,85,0.00,,,0.27,WUHU216HW,2014-01-03 18:38:00,
2014-01-03 19:43:00,43.9,39.7,29.54,WSW,248,17.4,24.6,85,0.00,,,0.27,WUHU216HW,2014-01-03 18:43:00,
2014-01-03 19:48:00,43.9,39.7,29.54,WSW,248,15.7,24.6,85,0.00,,,0.27,WUHU216HW,2014-01-03 18:48:00,
2014-01-03 19:53:00,43.9,39.7,29.54,SW,225,14.3,21.0,85,0.01,,,0.28,WUHU216HW,2014-01-03 18:53:00,
2014-01-03 19:58:00,44.1,39.9,29.55,WSW,248,12.5,21.7,85,0.01,,,0.28,WUHU216HW,2014-01-03 18:58:00,
2014-01-03 20:03:00,44.3,40.1,29.55,WSW,248,16.1,23.0,85,0.01,,,0.28,WUHU216HW,2014-01-03 19:03:00,
2014-01-03 20:08:00,44.3,39.4,29.55,SW,225,17.2,27.3,83,0.02,,,0.29,WUHU216HW,2014-01-03 19:08:00,
2014-01-03 20:13:00,44.3,39.8,29.55,SW,225,20.1,27.3,84,0.02,,,0.29,WUHU216HW,2014-01-03 19:13:00,
2014-01-03 20:18:00,44.5,40.0,29.55,SW,225,16.1,24.2,84,0.02,,,0.29,WUHU216HW,2014-01-03 19:18:00,
2014-01-03 20:23:00,44.6,40.2,29.55,WSW,248,15.7,23.5,84,0.02,,,0.29,WUHU216HW,2014-01-03 19:23:00,
2014-01-03 20:28:00,44.8,40.6,29.56,SW,225,17.7,25.1,85,0.02,,,0.29,WUHU216HW,2014-01-03 19:28:00,
2014-01-03 20:33:00,44.6,40.4,29.55,SSW,203,11.9,25.1,85,0.02,,,0.29,WUHU216HW,2014-01-03 19:33:00,
2014-01-03 20:38:00,44.5,40.2,29.55,SW,225,15.0,19.9,85,0.02,,,0.29,WUHU216HW,2014-01-03 19:38:00,
2014-01-03 20:43:00,44.5,40.0,29.55,SW,225,13.2,18.3,84,0.02,,,0.29,WUHU216HW,2014-01-03 19:43:00,
2014-01-03 20:48:00,44.6,40.2,29.55,SSW,203,14.3,22.4,84,0.01,,,0.29,WUHU216HW,2014-01-03 19:48:00,
2014-01-03 20:53:00,44.6,40.2,29.55,SSW,203,18.8,22.4,84,0.01,,,0.29,WUHU216HW,2014-01-03 19:53:00,
2014-01-03 20:58:00,44.5,39.6,29.55,SSW,203,22.6,24.2,83,0.01,,,0.29,WUHU216HW,2014-01-03 19:58:00,
2014-01-03 21:03:00,44.5,39.6,29.56,SW,225,19.0,25.9,83,0.01,,,0.29,WUHU216HW,2014-01-03 20:03:00,
2014-01-03 21:08:00,44.6,39.8,29.57,South,180,21.9,25.9,83,0.00,,,0.29,WUHU216HW,2014-01-03 20:08:00,
2014-01-03 21:13:00,44.5,39.6,29.57,SSW,203,21.3,24.4,83,0.00,,,0.29,WUHU216HW,2014-01-03 20:13:00,
2014-01-03 21:18:00,44.5,39.3,29.57,SSW,203,16.3,24.4,82,0.00,,,0.29,WUHU216HW,2014-01-03 20:18:00,
2014-01-03 21:23:00,44.3,38.8,29.57,SSW,203,14.1,21.3,81,0.00,,,0.29,WUHU216HW,2014-01-03 20:23:00,
2014-01-03 21:28:00,44.1,38.6,29.57,SW,225,14.3,20.8,81,0.00,,,0.29,WUHU216HW,2014-01-03 20:28:00,
2014-01-03 21:33:00,44.1,38.6,29.58,SSW,203,12.3,19.2,81,0.00,,,0.29,WUHU216HW,2014-01-03 20:33:00,
2014-01-03 21:38:00,43.9,38.2,29.57,SSW,203,14.3,17.9,80,0.00,,,0.29,WUHU216HW,2014-01-03 20:38:00,
2014-01-03 21:43:00,44.1,38.3,29.58,SW,225,16.1,19.0,80,0.00,,,0.29,WUHU216HW,2014-01-03 20:43:00,
2014-01-03 21:48:00,44.1,38.6,29.58,SSW,203,12.5,20.1,81,0.00,,,0.29,WUHU216HW,2014-01-03 20:48:00,
2014-01-03 21:53:00,44.3,38.8,29.58,SSW,203,19.9,21.9,81,0.00,,,0.29,WUHU216HW,2014-01-03 20:53:00,
2014-01-03 21:58:00,44.3,38.8,29.58,South,180,13.6,21.9,81,0.00,,,0.29,WUHU216HW,2014-01-03 20:58:00,
2014-01-03 22:03:00,44.5,39.0,29.58,SSW,203,13.4,21.5,81,0.00,,,0.29,WUHU216HW,2014-01-03 21:03:00,
2014-01-03 22:08:00,44.5,39.0,29.58,SSW,203,17.2,21.5,81,0.00,,,0.29,WUHU216HW,2014-01-03 21:08:00,
2014-01-03 22:13:00,44.8,39.3,29.59,SSW,203,19.2,23.7,81,0.00,,,0.29,WUHU216HW,2014-01-03 21:13:00,
2014-01-03 22:18:00,44.8,39.3,29.59,SSW,203,20.1,24.4,81,0.00,,,0.29,WUHU216HW,2014-01-03 21:18:00,
2014-01-03 22:23:00,44.8,39.3,29.59,SSW,203,18.8,24.6,81,0.00,,,0.29,WUHU216HW,2014-01-03 21:23:00,
2014-01-03 22:28:00,44.6,39.2,29.59,South,180,15.9,24.6,81,0.00,,,0.29,WUHU216HW,2014-01-03 21:28:00,
2014-01-03 22:33:00,44.6,39.5,29.59,SW,225,14.1,25.3,82,0.00,,,0.29,WUHU216HW,2014-01-03 21:33:00,
2014-01-03 22:38:00,44.5,39.6,29.60,South,180,13.4,25.3,83,0.00,,,0.29,WUHU216HW,2014-01-03 21:38:00,
2014-01-03 22:43:00,44.5,39.6,29.60,SSW,203,14.8,20.1,83,0.00,,,0.29,WUHU216HW,2014-01-03 21:43:00,
2014-01-03 22:48:00,44.6,39.5,29.60,South,180,14.8,20.1,82,0.00,,,0.29,WUHU216HW,2014-01-03 21:48:00,
2014-01-03 22:54:00,44.6,39.5,29.61,SW,225,17.7,19.7,82,0.00,,,0.29,WUHU216HW,2014-01-03 21:54:00,
2014-01-03 22:59:00,44.8,39.7,29.61,SSW,203,12.8,21.5,82,0.00,,,0.29,WUHU216HW,2014-01-03 21:59:00,
2014-01-03 23:04:00,44.8,39.7,29.61,SSW,203,18.1,22.1,82,0.00,,,0.29,WUHU216HW,2014-01-03 22:04:00,
2014-01-03 23:09:00,44.8,39.7,29.61,South,180,17.4,22.1,82,0.00,,,0.29,WUHU216HW,2014-01-03 22:09:00,
2014-01-03 23:14:00,44.8,39.7,29.61,South,180,16.6,21.5,82,0.00,,,0.29,WUHU216HW,2014-01-03 22:14:00,
2014-01-03 23:19:00,44.8,39.3,29.61,SSW,203,17.9,21.5,81,0.00,,,0.29,WUHU216HW,2014-01-03 22:19:00,
2014-01-03 23:24:00,44.8,39.7,29.61,SSW,203,14.1,20.1,82,0.00,,,0.29,WUHU216HW,2014-01-03 22:24:00,
2014-01-03 23:29:00,44.6,39.5,29.61,SSW,203,16.1,20.1,82,0.00,,,0.29,WUHU216HW,2014-01-03 22:29:00,
2014-01-03 23:34:00,44.6,39.5,29.62,SSW,203,12.1,20.1,82,0.00,,,0.29,WUHU216HW,2014-01-03 22:34:00,
2014-01-03 23:39:00,44.6,39.5,29.62,SSW,203,16.3,19.5,82,0.00,,,0.29,WUHU216HW,2014-01-03 22:39:00,
2014-01-03 23:44:00,44.8,39.7,29.63,SSW,203,17.0,20.8,82,0.00,,,0.29,WUHU216HW,2014-01-03 22:44:00,
2014-01-03 23:49:00,45.0,39.5,29.63,SSW,203,15.0,20.8,81,0.00,,,0.29,WUHU216HW,2014-01-03 22:49:00,
2014-01-03 23:54:00,45.0,39.5,29.63,South,180,18.6,22.8,81,0.00,,,0.29,WUHU216HW,2014-01-03 22:54:00,
2014-01-03 23:59:00,45.0,39.5,29.64,SSW,203,18.1,23.0,81,0.00,,,0.29,WUHU216HW,2014-01-03 22:59:00,